Weather History for KROX - August, 2013

Change the Weather History Date:

Monday, August 5, 2013

  Actual Average Record
Temperature  
Mean Temperature 65 °F -  
Max Temperature 73 °F 78 °F 91 °F (2001)
Min Temperature 57 °F 50 °F 40 °F (1989)
Growing Degree Days 15 (Base 50)    
Moisture  
Dew Point 56 °F    
Average Humidity 78    
Maximum Humidity 88    
Minimum Humidity 57    
Precipitation  
Precipitation 0.12 in - - ()
Sea Level Pressure  
Sea Level Pressure 29.85 in    
Wind  
Wind Speed 6 mph (North)    
Max Wind Speed 9 mph    
Max Gust Speed -    
Visibility 10 miles    
Events Rain , Thunderstorm    
Averages and records for this station are not official NWS values.
T = Trace of Precipitation, MM = Missing Value Source: NWS Daily Summary

Daily Weather History Graph

Daily Weather History Graph

Search for Another Location

Airport or City:

Trip Planner

Search our weather history database for the weather conditions in past years. The results will help you decide how hot, cold, wet, or windy it might be!

Date:

Astronomy

Aug. 05, 2013 Rise Set
Actual Time 6:01 AM CDT 8:54 PM CDT
Civil Twilight 5:25 AM CDT 9:31 PM CDT
Nautical Twilight 4:38 AM CDT 10:17 PM CDT
Astronomical Twilight 3:41 AM CDT 11:14 PM CDT
Moon 4:59 AM CDT (8/5) 7:51 PM CDT (8/5)
Length of Visible Light 16h 05m
Length of Day
14h 52m
Waning Crescent, 1% of the Moon is Illuminated
Aug 5
Waning Crescent
Aug 6
New
Aug 14
First Quarter
Aug 20
Full
Aug 28
Last Quarter

Hourly Weather History & Observations

Time (CDT) Temp. Dew Point Humidity Pressure Visibility Wind Dir Wind Speed Gust Speed Precip Events Conditions
12:14 AM 59.0 °F 53.6 °F 82% 29.96 in 10.0 mi ESE 4.6 mph - N/A   Overcast
12:34 AM 59.0 °F 53.6 °F 82% 29.95 in 7.0 mi ESE 9.2 mph - 0.01 in Rain , Thunderstorm Rain
12:54 AM 57.2 °F 53.6 °F 88% 29.94 in 10.0 mi ESE 8.1 mph - 0.05 in Rain Rain
1:14 AM 57.2 °F 53.6 °F 88% 29.93 in 10.0 mi ESE 8.1 mph - 0.04 in Rain Rain
1:34 AM 57.2 °F 53.6 °F 88% 29.92 in 10.0 mi ESE 8.1 mph - 0.06 in Rain Light Rain
1:54 AM 57.2 °F 53.6 °F 88% 29.91 in 10.0 mi ESE 8.1 mph - 0.06 in Rain Light Rain
2:14 AM 57.2 °F 53.6 °F 88% 29.90 in 10.0 mi ESE 6.9 mph - N/A Thunderstorm Mostly Cloudy
2:34 AM 57.2 °F 53.6 °F 88% 29.89 in 10.0 mi ESE 8.1 mph - N/A   Overcast
2:54 AM 57.2 °F 53.6 °F 88% 29.89 in 10.0 mi East 4.6 mph - N/A   Overcast
3:14 AM 57.2 °F 53.6 °F 88% 29.89 in 10.0 mi East 4.6 mph - N/A   Overcast
3:34 AM 57.2 °F 53.6 °F 88% 29.88 in 10.0 mi East 4.6 mph - N/A   Overcast
3:54 AM 57.2 °F 53.6 °F 88% 29.88 in 10.0 mi ENE 3.5 mph - N/A   Light Drizzle
4:14 AM 57.2 °F 53.6 °F 88% 29.87 in 10.0 mi East 4.6 mph - N/A   Overcast
4:34 AM 57.2 °F 53.6 °F 88% 29.86 in 10.0 mi ENE 4.6 mph - N/A   Overcast
4:54 AM 57.2 °F 53.6 °F 88% 29.86 in 10.0 mi Calm Calm - N/A   Overcast
5:14 AM 57.2 °F 53.6 °F 88% 29.86 in 10.0 mi NE 4.6 mph - N/A   Overcast
5:34 AM 57.2 °F 53.6 °F 88% 29.86 in 10.0 mi NE 3.5 mph - N/A   Overcast
5:54 AM 57.2 °F 53.6 °F 88% 29.86 in 10.0 mi NE 3.5 mph - N/A   Overcast
6:14 AM 57.2 °F 53.6 °F 88% 29.86 in 10.0 mi Calm Calm - N/A   Overcast
6:34 AM 57.2 °F 53.6 °F 88% 29.86 in 10.0 mi NE 3.5 mph - N/A   Overcast
6:54 AM 57.2 °F 53.6 °F 88% 29.86 in 10.0 mi NNE 3.5 mph - N/A   Overcast
7:14 AM 59.0 °F 53.6 °F 82% 29.86 in 10.0 mi NE 3.5 mph - N/A   Overcast
7:34 AM 60.8 °F 53.6 °F 77% 29.86 in 10.0 mi NE 4.6 mph - N/A   Overcast
7:54 AM 60.8 °F 55.4 °F 82% 29.87 in 10.0 mi NE 3.5 mph - N/A   Overcast
8:14 AM 60.8 °F 55.4 °F 82% 29.86 in 10.0 mi NE 3.5 mph - 0.01 in   Overcast
8:34 AM 60.8 °F 55.4 °F 82% 29.86 in 10.0 mi East 3.5 mph - 0.01 in   Overcast
8:55 AM 60.8 °F 55.4 °F 82% 29.86 in 10.0 mi Calm Calm - 0.01 in   Overcast
9:14 AM 60.8 °F 55.4 °F 82% 29.86 in 10.0 mi Calm Calm - N/A   Overcast
9:34 AM 62.6 °F 57.2 °F 82% 29.86 in 10.0 mi NNW 3.5 mph - N/A   Overcast
9:55 AM 62.6 °F 57.2 °F 82% 29.86 in 10.0 mi North 5.8 mph - N/A   Overcast
10:14 AM 62.6 °F 57.2 °F 82% 29.86 in 10.0 mi North 6.9 mph - N/A   Overcast
10:34 AM 62.6 °F 57.2 °F 82% 29.86 in 10.0 mi North 5.8 mph - N/A   Overcast
10:55 AM 62.6 °F 57.2 °F 82% 29.86 in 7.0 mi NNW 6.9 mph - N/A   Overcast
11:14 AM 62.6 °F 57.2 °F 82% 29.86 in 3.0 mi NNW 8.1 mph - N/A   Haze
11:34 AM 62.6 °F 57.2 °F 82% 29.86 in 4.0 mi NNE 4.6 mph - N/A   Haze
11:55 AM 62.6 °F 57.2 °F 82% 29.87 in 5.0 mi North 4.6 mph - N/A   Haze
12:14 PM 62.6 °F 57.2 °F 82% 29.87 in 7.0 mi NNE 9.2 mph - N/A   Overcast
12:34 PM 62.6 °F 57.2 °F 82% 29.87 in 4.0 mi NNE 6.9 mph - N/A   Light Drizzle
12:54 PM 64.4 °F 59.0 °F 83% 29.87 in 10.0 mi North 6.9 mph - N/A   Mostly Cloudy
1:14 PM 64.4 °F 59.0 °F 83% 29.87 in 10.0 mi NNE 4.6 mph - N/A   Mostly Cloudy
1:34 PM 64.4 °F 59.0 °F 83% 29.86 in 10.0 mi NNE 4.6 mph - N/A   Mostly Cloudy
1:54 PM 66.2 °F 60.8 °F 83% 29.86 in 10.0 mi NNE 3.5 mph - N/A   Scattered Clouds
2:14 PM 69.8 °F 60.8 °F 73% 29.85 in 10.0 mi Calm Calm - N/A   Scattered Clouds
2:34 PM 69.8 °F 60.8 °F 73% 29.85 in 10.0 mi Calm Calm - N/A   Scattered Clouds
2:54 PM 69.8 °F 60.8 °F 73% 29.84 in 10.0 mi Calm Calm - N/A   Scattered Clouds
3:14 PM 71.6 °F 60.8 °F 69% 29.84 in 10.0 mi WNW 3.5 mph - N/A   Scattered Clouds
3:34 PM 71.6 °F 59.0 °F 64% 29.83 in 10.0 mi WNW 5.8 mph - N/A   Clear
3:54 PM 71.6 °F 59.0 °F 64% 29.83 in 10.0 mi West 9.2 mph - N/A   Scattered Clouds
4:14 PM 73.4 °F 59.0 °F 61% 29.82 in 10.0 mi WSW 8.1 mph - N/A   Scattered Clouds
4:34 PM 73.4 °F 57.2 °F 57% 29.82 in 10.0 mi WNW 6.9 mph - N/A   Scattered Clouds
4:54 PM 73.4 °F 57.2 °F 57% 29.81 in 10.0 mi WSW 6.9 mph - N/A   Scattered Clouds
5:14 PM 73.4 °F 57.2 °F 57% 29.80 in 10.0 mi WNW 5.8 mph - N/A   Scattered Clouds
5:34 PM 71.6 °F 57.2 °F 60% 29.80 in 10.0 mi West 6.9 mph - N/A   Clear
5:54 PM 73.4 °F 57.2 °F 57% 29.80 in 10.0 mi WNW 9.2 mph - N/A   Scattered Clouds
6:14 PM 73.4 °F 57.2 °F 57% 29.80 in 10.0 mi West 6.9 mph - N/A   Clear
6:34 PM 73.4 °F 57.2 °F 57% 29.80 in 10.0 mi West 9.2 mph - N/A   Clear
6:54 PM 71.6 °F 57.2 °F 60% 29.79 in 10.0 mi WNW 5.8 mph - N/A   Clear
7:14 PM 71.6 °F 57.2 °F 60% 29.79 in 10.0 mi West 5.8 mph - N/A   Clear
7:34 PM 71.6 °F 59.0 °F 64% 29.79 in 10.0 mi West 6.9 mph - N/A   Clear
7:54 PM 69.8 °F 57.2 °F 64% 29.78 in 10.0 mi West 5.8 mph - N/A   Clear
8:14 PM 69.8 °F 59.0 °F 68% 29.79 in 10.0 mi West 5.8 mph - N/A   Clear
8:34 PM 68.0 °F 59.0 °F 73% 29.79 in 10.0 mi WSW 5.8 mph - N/A   Clear
8:54 PM 66.2 °F 57.2 °F 73% 29.79 in 10.0 mi SW 5.8 mph - N/A   Clear
9:14 PM 64.4 °F 57.2 °F 77% 29.79 in 10.0 mi SW 5.8 mph - N/A   Clear
9:34 PM 62.6 °F 57.2 °F 82% 29.79 in 10.0 mi SW 4.6 mph - N/A   Clear
9:54 PM 60.8 °F 55.4 °F 82% 29.78 in 10.0 mi South 5.8 mph - N/A   Clear
10:14 PM 60.8 °F 55.4 °F 82% 29.79 in 10.0 mi SSW 4.6 mph - N/A   Scattered Clouds
10:34 PM 60.8 °F 55.4 °F 82% 29.79 in 10.0 mi SW 9.2 mph - N/A   Mostly Cloudy
10:54 PM 60.8 °F 55.4 °F 82% 29.78 in 10.0 mi SSW 5.8 mph - N/A   Scattered Clouds
11:14 PM 60.8 °F 55.4 °F 82% 29.78 in 10.0 mi SSW 6.9 mph - N/A   Scattered Clouds
11:34 PM 62.6 °F 55.4 °F 77% 29.77 in 10.0 mi SSW 8.1 mph - N/A   Mostly Cloudy
11:54 PM 60.8 °F 55.4 °F 82% 29.77 in 10.0 mi SW 8.1 mph - N/A   Scattered Clouds